Tracking 30923 objects as of 1-Jul-2025
HD Live streaming from Space Station
objects crossing your sky now

TEIKYOSAT-4 (OORURI)

Track TEIKYOSAT-4 (OORURI) now!
10-day predictions
TEIKYOSAT-4 (OORURI) is classified as:


NORAD ID: 49396
Int'l Code: 2021-102B
Perigee: 540.7 km
Apogee: 560.0 km
Inclination: 97.4 °
Period: 95.5 minutes
Semi major axis: 6921 km
RCS: Unknown
Launch date: November 9, 2021
Source: Japan (JPN)
Launch site: KAGOSHIMA SPACE CENTER UNIVERSITY OF TOKYO (KSCUT)

Uplink (MHz):
Downlink (MHz): 437.450/5831.000
Beacon (MHz): 437.450
Mode: 1k2AFSK/9k6GMSK/115k2FSK CW*
Call sign: JS1YHH
Status: Active

Your satellite tracking list
COSMOS 2251 DEB
Track 1 satellite(s)




NASA's NSSDC Master Catalog

Two Line Element Set (TLE):
1 49396U 21102B   25181.72283745  .00001620  00000-0  10987-3 0  9999
2 49396  97.4088 219.3875 0013960  64.9640 295.3037 15.07713134199732
Source of the keplerian elements: AMSAT